Meerawa, Australia

4:35 PM AEST on April 28, 2017 (GMT +1000)
Meerawa

Weather History for 94287 - August, 2013

Change the Weather History Date:

Friday, August 16, 2013

  Actual Average Record
Temperature  
Mean Temperature 73 °F -  
Max Temperature 84 °F 81 °F - ()
Min Temperature 62 °F 65 °F - ()
Cooling Degree Days 8    
Growing Degree Days 23 (Base 50)    
Moisture  
Dew Point 63 °F    
Average Humidity 71    
Maximum Humidity 94    
Minimum Humidity 37    
Precipitation  
Precipitation 0.00 in 0.04 in - ()
Sea Level Pressure  
Sea Level Pressure 30.01 in    
Wind  
Wind Speed 7 mph ()    
Max Wind Speed 15 mph    
Max Gust Speed -    
Visibility 6.5 miles    
Events      
T = Trace of Precipitation, MM = Missing Value Source: Averaged Metar Reports

Daily Weather History Graph

Daily Weather History Graph

Search for Another Location

Airport or City:

Trip Planner

Search our weather history database for the weather conditions in past years. The results will help you decide how hot, cold, wet, or windy it might be!

Date:

Astronomy

Aug. 16, 2013 Rise Set
Actual Time 6:34 AM AEST 6:07 PM AEST
Civil Twilight 6:12 AM AEST 6:30 PM AEST
Nautical Twilight 5:47 AM AEST 6:55 PM AEST
Astronomical Twilight 5:21 AM AEST 7:21 PM AEST
Moon 1:12 PM AEST (8/16) 1:33 AM AEST (8/16)
Length of Visible Light 12h 17m
Length of Day
11h 33m
Waxing Gibbous, 68% of the Moon is Illuminated
Aug 16
Waxing Gibbous
Aug 21
Full
Aug 28
Last Quarter
Sep 5
New
Sep 13
First Quarter

Hourly Weather History & Observations

Time (AEST) Temp. Heat Index Dew Point Humidity Pressure Visibility Wind Dir Wind Speed Gust Speed Precip Events Conditions
12:00 AM 65 °F - 61 °F 84% 30.04 in - SSE 1.2 mph - -  
12:00 AM 64.4 °F - 60.8 °F 88% 30.04 in 6.2 mi SSE 1.2 mph - N/A   Partly Cloudy
12:30 AM 62.6 °F - 60.8 °F 94% 30.04 in 6.2 mi North 4.6 mph - N/A   Partly Cloudy
1:00 AM 63 °F - 61 °F 91% 30.03 in - North 4.6 mph - -  
1:00 AM 62.6 °F - 60.8 °F 94% 30.01 in 6.2 mi North 4.6 mph - N/A   Partly Cloudy
1:30 AM 62.6 °F - 60.8 °F 94% 30.01 in 6.2 mi NNE 2.3 mph - N/A   Partly Cloudy
2:00 AM 64.4 °F - 60.8 °F 88% 30.01 in - Calm Calm - N/A   Clear
2:30 AM 64.4 °F - 60.8 °F 88% 29.98 in - SE 9.2 mph - N/A   Clear
3:00 AM 64.4 °F - 60.8 °F 88% 29.98 in - SSE 8.1 mph - N/A   Clear
3:30 AM 66.2 °F - 60.8 °F 83% 29.98 in 6.2 mi SE 9.2 mph - N/A   Partly Cloudy
4:00 AM 65 °F - 60 °F 78% 30.00 in - South 5.8 mph - -  
4:00 AM 64.4 °F - 60.8 °F 88% 29.98 in 6.2 mi South 5.8 mph - N/A   Partly Cloudy
4:30 AM 62.6 °F - 60.8 °F 94% 29.98 in 6.2 mi WSW 1.2 mph - N/A   Partly Cloudy
5:00 AM 64.4 °F - 60.8 °F 88% 29.98 in - SSE 9.2 mph - N/A   Clear
5:30 AM 64.4 °F - 60.8 °F 88% 30.01 in - SSE 11.5 mph - N/A   Clear
6:00 AM 64.4 °F - 60.8 °F 88% 30.01 in 6.2 mi SE 13.8 mph - N/A   Partly Cloudy
6:30 AM 66.2 °F - 60.8 °F 83% 30.01 in 6.2 mi SSE 13.8 mph - N/A   Scattered Clouds
7:00 AM 67 °F - 61 °F 75% 30.04 in - South 4.6 mph - -  
7:00 AM 66.2 °F - 60.8 °F 83% 30.04 in 6.2 mi South 4.6 mph - N/A   Partly Cloudy
7:30 AM 66.2 °F - 60.8 °F 83% 30.04 in 6.2 mi SSE 9.2 mph - N/A   Partly Cloudy
8:00 AM 68.0 °F - 60.8 °F 78% 30.04 in 6.2 mi SE 12.7 mph - N/A   Partly Cloudy
8:30 AM 73.4 °F - 62.6 °F 69% 30.04 in 6.2 mi SE 11.5 mph - N/A   Partly Cloudy
9:00 AM 77.0 °F - 62.6 °F 61% 30.06 in 6.2 mi South 9.2 mph - N/A   Partly Cloudy
10:00 AM 78 °F - 63 °F 51% 30.08 in - South 11.5 mph - -  
10:00 AM 78.8 °F - 62.6 °F 57% 30.06 in 6.2 mi South 11.5 mph - N/A   Partly Cloudy
10:30 AM 78.8 °F - 62.6 °F 57% 30.06 in 6.2 mi South 11.5 mph - N/A   Scattered Clouds
11:00 AM 80.6 °F 81.8 °F 62.6 °F 54% 30.06 in 6.2 mi South 11.5 mph - N/A   Scattered Clouds
11:30 AM 82.4 °F 83.4 °F 62.6 °F 51% 30.04 in 6.2 mi SE 15.0 mph - N/A   Scattered Clouds
12:00 PM 82.4 °F 82.9 °F 60.8 °F 48% 30.04 in 6.2 mi SE 11.5 mph - N/A   Scattered Clouds
12:30 PM 82.4 °F 82.9 °F 60.8 °F 48% 30.04 in 6.2 mi SSE 11.5 mph - N/A   Partly Cloudy
1:00 PM 82 °F - 60 °F 37% 30.03 in - ESE 12.7 mph - -  
1:00 PM 82.4 °F 82.9 °F 60.8 °F 48% 30.01 in 6.2 mi ESE 12.7 mph - N/A   Partly Cloudy
1:30 PM 84.2 °F 84.4 °F 60.8 °F 45% 30.01 in 6.2 mi ESE 11.5 mph - N/A   Partly Cloudy
2:00 PM 80.6 °F 81.5 °F 60.8 °F 51% 29.98 in 6.2 mi ESE 13.8 mph - N/A   Partly Cloudy
2:30 PM 82.4 °F 82.9 °F 60.8 °F 48% 29.98 in 6.2 mi East 10.4 mph - N/A   Partly Cloudy
3:00 PM 82 °F - 61 °F 38% 29.97 in 19 mi East 10.4 mph - -   Partly Cloudy
3:00 PM 82.4 °F 82.9 °F 60.8 °F 48% 29.98 in 6.2 mi East 10.4 mph - N/A   Partly Cloudy
3:30 PM 80.6 °F 81.8 °F 62.6 °F 54% 29.95 in 6.2 mi NE 11.5 mph - N/A   Partly Cloudy
4:00 PM 81 °F - 63 °F 44% 29.97 in - East 10.4 mph - -  
4:00 PM 80.6 °F 81.8 °F 62.6 °F 54% 29.95 in 6.2 mi East 10.4 mph - N/A   Partly Cloudy
5:00 PM 78.8 °F - 62.6 °F 57% 29.95 in 6.2 mi East 11.5 mph - N/A   Partly Cloudy
5:30 PM 78.8 °F - 62.6 °F 57% 29.98 in 6.2 mi ESE 9.2 mph - N/A   Partly Cloudy
6:00 PM 75.2 °F - 64.4 °F 69% 29.98 in 6.2 mi SE 11.5 mph - N/A   Partly Cloudy
6:30 PM 75.2 °F - 66.2 °F 73% 29.98 in 6.2 mi SE 10.4 mph - N/A   Partly Cloudy
7:00 PM 73 °F - 66 °F 73% 30.00 in - SE 10.4 mph - -  
7:00 PM 73.4 °F - 66.2 °F 78% 29.98 in 6.2 mi SE 10.4 mph - N/A   Partly Cloudy
7:30 PM 73.4 °F - 66.2 °F 78% 30.01 in 6.2 mi SSE 8.1 mph - N/A   Partly Cloudy
8:00 PM 73.4 °F - 66.2 °F 78% 30.01 in 6.2 mi South 5.8 mph - N/A   Partly Cloudy
8:30 PM 73.4 °F - 66.2 °F 78% 30.01 in 6.2 mi South 6.9 mph - N/A   Scattered Clouds
9:00 PM 72 °F - 66 °F 75% 30.03 in - South 9.2 mph - -   Overcast
9:00 PM 73.4 °F - 66.2 °F 78% 30.01 in 6.2 mi South 9.2 mph - N/A   Scattered Clouds
9:30 PM 73.4 °F - 66.2 °F 78% 30.04 in 6.2 mi South 8.1 mph - N/A   Partly Cloudy
10:00 PM 73 °F - 65 °F 70% 30.04 in - South 9.2 mph - -  
10:00 PM 73.4 °F - 66.2 °F 78% 30.04 in 6.2 mi South 9.2 mph - N/A   Partly Cloudy
10:30 PM 71.6 °F - 66.2 °F 83% 30.04 in 6.2 mi South 8.1 mph - N/A   Scattered Clouds
11:00 PM 73.4 °F - 66.2 °F 78% 30.04 in 6.2 mi South 9.2 mph - N/A   Scattered Clouds
11:30 PM 73.4 °F - 64.4 °F 73% 30.04 in 6.2 mi South 9.2 mph - N/A   Scattered Clouds